Location: ?????
(37.7324°N, 23.9257°E)
Time: 07:31:26
(UTC+00:00)

GPS 2-04 Rocket1 - Pass Details

Date: 29 November 2020
Orbit: 416 x 544 km, 35.6° (Epoch: 17 January)

Event Time Altitude Azimuth Distance (km) Brightness Sun altitude
Exits shadow 04:19:19 15° 264° (W) 1,401 4.3 -11.7°
Maximum altitude 04:22:22 57° 188° (S) 578 3.0 -11.2°
Drops below altitude 10° 04:26:03 10° 109° (ESE) 1,637 6.9 -10.5°
Sets 04:28:12 0° 105° (ESE) 2,489 8.5 -10.1°
